Declared Sites

SiteID SiteReference FullSiteName SiteType ArchiveStatus DeclarationTypesort descending Gazette Date Province Country Latitude Longitude
27774 9/2/078/0012-057 21 Loop Street, Richmond Building Register Heritage Register 26/08/1994 Northern Cape South Africa -31.413443 23.943643
28504 9/2/035/0012-044 Cnr Bell and Berg Streets, Hanover Building Register Heritage Register 26/08/1994 Northern Cape South Africa -31.070331 24.443083
27285 9/2/100/0002-078 111 Church Street, Victoria West Building Register Heritage Register 26/08/1994 Northern Cape South Africa -31.400829 23.103559
28312 9/2/049/0120-057 3 Carrington Road, Kimberley Building Register Heritage Register 26/08/1994 Northern Cape South Africa -28.750619 24.777483
29026 9/2/019/0002-136 24 Daniel Street, Carnarvon Building Register Heritage Register 09/12/1994 Northern Cape South Africa -30.965967 22.129758
27803 9/2/078/0012-024 144 Pienaar Street, Richmond Building Register Heritage Register 26/08/1994 Northern Cape South Africa -31.413742 23.943205
26939 9/2/222/0020 Old Residency, 34 Taute Street, Ermelo Building Register Heritage Register 10/03/2000 Mpumalanga South Africa -26.525560 29.991150
29020 9/2/019/0002-145 1 End Street, Carnarvon Building Register Heritage Register 09/12/1994 Northern Cape South Africa -30.967901 22.125134
28542 9/2/035/0002-035 Erf 215, Market Street, Hanover Building Register Heritage Register 26/08/1994 Northern Cape South Africa -31.068160 24.442381
27307 9/2/100/0002-031 95 Church Street, Victoria West Building Register Heritage Register 26/08/1994 Northern Cape South Africa -31.402079 23.105581
27587 9/2/084/0060/001 Van der Bijl Cottage, 37A Market Street, Stellenbosch Building Register Heritage Register 18/12/1998 Western Cape South Africa -33.938527 18.854792
27815 9/2/078/0012-016 158 Pienaar Street, Richmond Building Register Heritage Register 26/08/1994 Northern Cape South Africa -31.413749 23.942959
27296 9/2/100/0002-052 Prison, Prison Street, Victoria West Building Register Heritage Register 26/08/1994 Northern Cape South Africa -31.402189 23.111638
28905 9/2/023/0033-034 11 D'Urban Row, Colesberg Building Register Heritage Register 26/08/1994 Northern Cape South Africa -30.719547 25.096545
28340 9/2/049/0120-011 Esmonde, 3 Loch Road, Kimberley Building Register Heritage Register 26/08/1994 Northern Cape South Africa -28.746006 24.775592
27860 9/2/073/0060 Shri Siva Subramanier and Marriamman Aulayam, Upper Valley Road, South End, Port Elizabeth Building Register Heritage Register 18/12/1998 Eastern Cape South Africa -33.970525 25.617633
28796 9/2/031/0015 41 Goodwood Street, Goodwood, Cape Town Building Register Heritage Register 12/09/1997 Western Cape South Africa -33.910278 18.547992
28307 9/2/049/0120-063 3 Elsmere Road, Kimberley Building Register Heritage Register 26/08/1994 Northern Cape South Africa -28.747619 24.777261
59 9/2/003/0049 38 Somerset Street, Grahamstown Building Register Heritage Register 07/07/1995 Eastern Cape South Africa -32.250981 24.534919
26416 9/2/333/0004 Town Hall, Voortrekker Street, Reitz Building Register (Withdrawn) Heritage Register 18/08/1995 Free State South Africa -27.799267 28.430206
27645 9/2/083/0041 Bredell House, Helderberg Village, Bredell Road, Somerset West District Building Register Heritage Register 12/02/1999 Western Cape South Africa -34.045735 18.812603
27243 9/2/100/0002-141 25 Helpmekaar Street, Victoria West Building Register Heritage Register 26/08/1994 Northern Cape South Africa -31.404800 23.120701
28521 9/2/035/0012-020 Standard Bank, cnr Market and Darling Streets, Hanover Building Register Heritage Register 26/08/1994 Northern Cape South Africa -31.068160 24.442381
26274 9/2/412/0014 Ottawa Estate Shree Emperumal Temple, Ottawa, Inanda District Building Register Heritage Register 30/08/1996 KwaZulu-Natal South Africa -29.672207 31.038888
27278 9/2/100/0002-085 103 Church Street, Victoria West Building Register Heritage Register 26/08/1994 Northern Cape South Africa -31.401415 23.104476
28335 9/2/049/0120-023 1 Smith Street, Kimberley Building Register Heritage Register 26/08/1994 Northern Cape South Africa -28.743550 24.778278
28303 9/2/049/0120-068 4 Belgrave Road, Kimberley Building Register Heritage Register 26/08/1994 Northern Cape South Africa -28.742464 24.777067
27320 9/2/100/0002-003 2 Daniel Hugo Street, Victoria West Building Register Heritage Register 26/08/1994 Northern Cape South Africa -31.402277 23.114493
28436 9/2/049/0002-138 28 Main Road, Kimberley Building Register Heritage Register 26/08/1994 Northern Cape South Africa -28.758117 24.786914
26566 9/2/300/0031 Old Nederduitse Gereformeerde Mission Church parsonage, President Boshoff Street, Bethlehem Building National monument Heritage Register 19/05/1989 Free State South Africa -28.233292 28.313585
28294 9/2/049/0120-089 5 Egerton Road, Kimberley Building Register Heritage Register 26/08/1994 Northern Cape South Africa -28.748453 24.779707
28320 9/2/049/0120-036 Cenotaph, Spencer Street, Kimberley Building Register Heritage Register 26/08/1994 Northern Cape South Africa -28.745682 24.774599
26398 9/2/339/0003 Town Hall, Voortrekker Street, Trompsburg Building Register Heritage Register 18/08/1995 Free State South Africa -30.031457 25.781981
28290 9/2/049/0120-099 46a Carrington Road, Kimberley Building Register Heritage Register 26/08/1994 Northern Cape South Africa -28.755136 24.771528
27820 9/2/078/0012-011 15 Loop Street, Richmond Building Register Heritage Register 26/08/1994 Northern Cape South Africa -31.413236 23.940898
27817 9/2/078/0012-013 19 Loop Street, Richmond Building Register Heritage Register 26/08/1994 Northern Cape South Africa -31.413419 23.941049
27771 9/2/078/0012-059 Erf 622, 46 Loop Street, Richmond Building Register Heritage Register 26/08/1994 Northern Cape South Africa -31.413557 23.947970
28898 9/2/023/0033-041 16 Stockenstrom Street, Colesberg Building Register Heritage Register 26/08/1994 Northern Cape South Africa -30.721419 25.095018
26861 9/2/228/0152 House Gordon, 10-12 Seymour Road, Parktown, Johannesburg Building Register Heritage Register 04/06/1993 Gauteng South Africa -26.182110 28.027780
28272 9/2/049/0120-114 15 Carrington Road, Kimberley Building Register Heritage Register 26/08/1994 Northern Cape South Africa -28.752250 24.775503
27286 9/2/100/0002-079 5 Fraser Street, Victoria West Building Register Heritage Register 26/08/1994 Northern Cape South Africa -31.403485 23.115855
28314 9/2/049/0120-059 5 Carrington Road, Kimberley Building Register Heritage Register 26/08/1994 Northern Cape South Africa -28.750786 24.777192
27256 9/2/100/0002-128 9 Brinkman Street, Victoria West Building Register Heritage Register 26/08/1994 Northern Cape South Africa -31.404842 23.106760
28515 9/2/035/0012-031 Gouws Street, Hanover Building Register Heritage Register 26/08/1994 Northern Cape South Africa -31.070347 24.440504
28378 9/2/049/0078 217 Dutoitspan Road, Kimberley Building Register Heritage Register 26/08/1994 Northern Cape South Africa -28.747533 24.775790
26879 9/2/228/0087 Terrace Houses, Bertrams, Johannesburg Building Register Heritage Register 10/04/1992 Gauteng South Africa -26.193211 28.066176
27305 9/2/100/0002-033 4 Hoek Street, Victoria West Building Register Heritage Register 26/08/1994 Northern Cape South Africa -31.403056 23.120556
26504 9/2/309/0006 St Bartholomew Anglican Church, 27 van der Wath Street, Dewetsdorp Building Register Heritage Register 22/05/1998 Free State South Africa -29.580161 26.667858
28900 9/2/023/0033-039 6 Church Street, Colesberg Building Register Heritage Register 26/08/1994 Northern Cape South Africa -30.716661 25.099935
29037 9/2/019/0002-077 Standard Bank, Alheit Street, Carnarvon Building Register Heritage Register 09/12/1994 Northern Cape South Africa -30.966848 22.133041

Pages

XLS
 
 

Search form